Regional Weather Roundup
Issued by NWS Little Rock, AR

Home | Current Version | Previous Version | Graphics & Text | Print | Product List | Glossary On
Versions: 1 2 3 4 5 6 7 8 9 10 11 12 13 14 15 16 17 18 19 20 21 22 23 24 25 26 27 28 29 30 31 32 33 34 35 36 37 38 39 40 41 42 43 44 45 46 47 48 49 50
000
ASUS44 KLZK 230705
RWRLZK

WEATHER ROUNDUP FOR ARKANSAS
NATIONAL WEATHER SERVICE LITTLE ROCK AR
100 AM CST SUN NOV 23 2014

NOTE: "FAIR" INDICATES FEW OR NO CLOUDS BELOW 12,000 FEET WITH NO
SIGNIFICANT WEATHER AND/OR OBSTRUCTIONS TO VISIBILITY.

ARZ001-003-010-029-230800-
NORTHWEST ARKANSAS

CITY           SKY/WX    TMP DP  RH WIND       PRES   REMARKS
FAYETTEVILLE   CLOUDY    59  55  87 S18G31    29.70F
FORT SMITH     CLOUDY    53  51  93 NE7       29.70F FOG
HARRISON       CLOUDY    55  54  96 SE15      29.75F
BENTONVILLE    CLOUDY    57  52  82 S9        29.71F
ROGERS         CLOUDY    56  53  90 SE14      29.70F
SILOAM SPGS    CLOUDY    57  52  82 S13G18    29.71F
HIGHFILL       CLOUDY    58  57  97 S16       29.69F
$$

ARZ004-005-016-230800-
NORTH CENTRAL ARKANSAS

CITY           SKY/WX    TMP DP  RH WIND       PRES   REMARKS
BATESVILLE     CLOUDY    55  48  76 SE7       29.84F
FLIPPIN        CLOUDY    54  48  82 E6        29.79F
MTN HOME       MOCLDY    52  50  93 SE7       29.78F
$$

ARZ040-041-230800-
WEST CENTRAL ARKANSAS

CITY           SKY/WX    TMP DP  RH WIND       PRES   REMARKS
MENA           CLOUDY    63  59  88 SE6       29.69F
MOUNT IDA      CLOUDY    60  56  86 SE13G23   29.69F
$$

ARZ009-017-025-026-028-230800-
NORTHEAST ARKANSAS

CITY           SKY/WX    TMP DP  RH WIND       PRES   REMARKS
CORNING        FAIR      50  45  81 SE10      29.87F
JONESBORO      PTCLDY    48  43  82 CALM      29.87F
NEWPORT        PTCLDY    49  46  89 SE9       29.86F
WALNUT RIDGE   PTCLDY    54  45  71 S12       29.84F
BLYTHEVILLE    PTCLDY    61  47  59 S8        29.91F
$$

ARZ022-023-033-042-044-230800-
CENTRAL ARKANSAS

CITY           SKY/WX    TMP DP  RH WIND       PRES   REMARKS
LITTLE ROCK    CLOUDY    59  50  72 SE8       29.82F
N LITTLE ROCK    N/A     57  53  85 S9        29.82F
JACKSONVILLE   CLOUDY    57  51  78 SE5       29.82F
SEARCY         CLOUDY    53  49  86 SE5       29.85F
HOT SPRINGS    LGT RAIN  59  55  87 SE13      29.78F
RUSSELLVILLE   CLOUDY    57  53  86 SE5       29.75F
CLINTON        CLOUDY    48  48 100 CALM      29.83F FOG
$$

ARZ036-230800-
EAST ARKANSAS

CITY           SKY/WX    TMP DP  RH WIND       PRES   REMARKS
WEST MEMPHIS   PTCLDY    57  52  83 SE12      29.87F
$$

ARZ050-053-066-070-073-230800-
SOUTHWEST ARKANSAS

CITY           SKY/WX    TMP DP  RH WIND       PRES   REMARKS
ARKADELPHIA    LGT RAIN  58  58 100 SE7       29.80F FOG
CAMDEN         HVY RAIN  57  55  94 CALM      29.83F
TEXARKANA      LGT RAIN  59  59 100 SE8       29.73F FOG
EL DORADO      LGT RAIN  58  56  93 N5        29.80F
DE QUEEN       LGT RAIN  61  59  93 SE15G24   29.65F
$$

ARZ056-057-069-230800-
SOUTHEAST ARKANSAS

CITY           SKY/WX    TMP DP  RH WIND       PRES   REMARKS
PINE BLUFF     CLOUDY    57  51  80 E10       29.83F
STUTTGART      CLOUDY    55  48  76 SE7       29.85F
MONTICELLO     MOCLDY    59  51  75 SE8       29.83F

$$




USA.gov is the U.S. government's official web portal to all federal, state and local government web resources and services.